174  
ASUS42 KTBW 190910  
RWRFL  
FLORIDA REGIONAL WEATHER ROUNDUP  
NATIONAL WEATHER SERVICE TAMPA BAY RUSKIN FL  
500 AM EDT SAT APR 19 2014  
 
NOTE: "FAIR" INDICATES FEW OR NO CLOUDS BELOW 12,000 FEET WITH NO  
SIGNIFICANT WEATHER AND/OR S TO VISIBILITY
.  
 
 
FLZ001>010-012>015-112-114-115-191000-  
PANHANDLE FLORIDA  
 
CITY SKY/WX TMP DP RH WIND PRES REMARKS
 
PENSACOLA CLOUDY 57 52 83 NW14 30.03F  
PENSACOLA NAS CLOUDY 57 53 86 N12G17 30.03F  
MILTON NAS CLOUDY 55 51 86 NW9 30.04S  
CRESTVIEW CLOUDY 57 52 83 N8 30.02F  
DUKE FIELD CLOUDY 56 53 91 N9 30.00F  
VALPARAISO CLOUDY 57 55 91 N10 30.00S  
MARY ESTHER CLOUDY 57 49 75 N13 30.00S  
PANAMA CITY CLOUDY 56 53 90 NW9 29.96F  
TYNDALL AFB CLOUDY 56 51 84 N10 29.96S  
APALACHICOLA CLOUDY 58 54 86 NW12 29.93R  
 
STATION/POSITION SKY/WX TEMP WIND PRES WAVE SWELL
 
AIR SEA DIR/SP/G HT/PER HT/PER  
(F) (DEG/KT/KT) (MB) (FT/S) (FT/S)  
30.1N 87.6W 59 65 350/ 19/ 23 1016.5F 3/ 3 2/ 8  
29.2N 88.2W 62 70 10/ 25/ 29 1017.2F  
28.8N 86.0W 62 67 340/ 17/ 23 1014.5F 6/ 7  
PANAMA CITY BEAC 56 66 10/ 10/ 13 1014.6R  
CAPE SAN BLAS NOT AVBL  
TOWER C 57 340/ 20/ 24 1012.6R  
28.5N 84.5W 62 69 320/ 16/ 19 1012.6R  
 

 
FLZ011-016>038-118-127-128-134-139-239-191000-  
NORTH FLORIDA  
 
CITY SKY/WX TMP DP RH WIND PRES REMARKS
 
MARIANNA CLOUDY 54 54 100 N10 29.96S FOG  
TALLAHASSEE CLOUDY 57 53 86 N7 29.91R  
PERRY DRIZZLE 57 57 100 N5 29.87S  
CROSS CITY N/A 67 64 90 S6 29.83F  
GAINESVILLE CLOUDY 68 67 96 S5 29.85F  
MAYPORT NAS CLOUDY 67 64 90 S3 29.87R  
JACKSONVILLE CLOUDY 67 67 100 S3 29.86S  
JAX NAS CLOUDY 69 66 90 S8 29.87S  
JAX CRAIG CLOUDY 69 65 86 S3 29.87S  
JAX CECIL CLOUDY 66 66 100 CALM 29.86S  
FERNANDINA BEA CLOUDY 66 64 94 SE3 29.86R  
ST AUGUSTINE MOCLDY 65 64 97 CALM 29.88R  
 
STATION/POSITION SKY/WX TEMP WIND PRES WAVE SWELL
 
AIR SEA DIR/SP/G HT/PER HT/PER  
(F) (DEG/KT/KT) (MB) (FT/S) (FT/S)  
SHELL POINT 57 360/ 8/ 11 1011.1F  
KEATON BEACH 59 360/ 4/ 5 1010.9F  
CEDAR KEY 68 240/ 7/ 10 1011.1F  
FERNANDINA 65 65 140/ 2/ 5 1010.7S  
30.7N 81.3W 64 N/A 4/ 7 2/11  
MAYPORT 66 65 160/ 2/ 4 N/A  
31.4N 80.9W 65 65 150/ 6/ 6 1011.9F 5/ 7 5/ 7  
ST AUGUSTINE 65 220/ 3/ 5 1011.9S  
 

 
FLZ040-043>046-052-053-057-058-063-144-191000-  
INTERIOR CENTRAL FLORIDA  
 
CITY SKY/WX TMP DP RH WIND PRES REMARKS
 
OCALA CLOUDY 68 63 83 SW12 29.87S  
THE VILLAGES N/A 68 68 100 S7 29.88R  
LEESBURG MOCLDY 69 67 93 SW7 29.88S  
SANFORD CLEAR 67 66 97 W3 29.87F  
ORLANDO EXEC CLEAR 69 67 93 SW6 29.88F  
ORLANDO INTL PTCLDY 67 65 93 S6 29.89S  
WINTER HAVEN PTCLDY 68 66 93 S5 29.90S  
LAKELAND CLEAR 64 64 100 S5 29.89S FOG  
BARTOW FAIR 64 N/A N/A CALM 29.90S  
OKEECHOBEE TSTM 72 70 94 NW7 29.91S  
 

 
FLZ041-047-054-059-064-141-147-191000-  
EAST CENTRAL FLORIDA  
 
CITY SKY/WX TMP DP RH WIND PRES REMARKS
 
DAYTONA BEACH PTCLDY 67 66 97 SW6 29.87F  
DELAND PTSUNNY 68 66 94 SW7 29.88F  
JFK SPACE CTR MOCLDY 71 69 94 S8 29.87F  
CAPE CANAVERAL MOCLDY 71 69 95 SW6 29.87F FOG  
PATRICK AFB MOCLDY 72 70 94 SW13 29.90R THUNDER  
MELBOURNE TSTM 72 70 93 S8 29.90R FOG  
VERO BEACH CLOUDY 73 73 100 S7 29.88F  
FT PIERCE CLOUDY 74 71 91 S8 29.88F  
STUART CLOUDY 72 72 100 S3 29.91S  
 
STATION/POSITION SKY/WX TEMP WIND PRES WAVE SWELL
 
AIR SEA DIR/SP/G HT/PER HT/PER  
(F) (DEG/KT/KT) (MB) (FT/S) (FT/S)  
28.5N 80.2W 73 72 190/ 10/ 14 1012.0F  
28.9N 78.5W 76 76 160/ 19/ 21 1012.6F 8/ 6 3/10  
TRIDENT PIER 71 74 230/ 6/ 10 1011.6R  
28.4N 80.5W 73 N/A 4/10 2/11  
27.6N 80.2W 74 N/A 5/11 2/11  
 

 
FLZ050-056-061-142-242-148-248-149-249-151-251-155-255-  
160-260-191000-  
WEST CENTRAL FLORIDA  
 
CITY SKY/WX TMP DP RH WIND PRES REMARKS
 
CRYSTAL RIVER CLOUDY 68 63 83 W6 29.87F  
INVERNESS CLOUDY 68 64 88 SW3 29.88R  
BROOKSVILLE CLOUDY 68 65 90 W9 29.90R  
CLEARWATER MOCLDY 69 64 84 W10 29.89S  
TAMPA INTL MOCLDY 69 66 90 W13 29.89S  
TAMPA EXEC CLOUDY 72 68 88 SW7 29.89R  
PLANT CITY MOCLDY 70 N/A N/A SW6 29.91R  
MACDILL AFB MOCLDY 70 70 100 W8 29.89S  
PETER O KNIGHT CLOUDY 72 68 88 W7 29.89S  
ST PETERSBURG MOCLDY 71 67 87 W12 29.88R  
SARASOTA CLOUDY 71 67 87 W13 29.89R  
VENICE PTSUNNY 72 68 88 W13 29.92R  
 
STATION/POSITION SKY/WX TEMP WIND PRES WAVE SWELL
 
AIR SEA DIR/SP/G HT/PER HT/PER  
(F) (DEG/KT/KT) (MB) (FT/S) (FT/S)  
CEDAR KEY 68 240/ 7/ 10 1011.1F  
28.5N 84.5W 62 69 320/ 16/ 19 1012.6R  
27.3N 84.3W 72 N/A 5/ 6  
CLEARWATER BEACH 70 72 260/ 17/ 21 1011.6R  
MIDDLE TAMPA BAY 71 290/ 16/ 18 1012.6R  
VENICE 72 74 280/ 17/ 18 1012.3R  
 

 
FLZ066-069-070-075>078-162-262-165-265-191000-  
SOUTHWEST FLORIDA AND KEYS  
 
CITY SKY/WX TMP DP RH WIND PRES REMARKS
 
PUNTA GORDA CLEAR 73 69 87 W7 29.91F  
FT MYERS PTCLDY 75 68 78 W12 29.90R  
SOUTHWEST INTL PTCLDY 74 68 81 W7 29.91R  
NAPLES N/A 72 N/A N/A S6 29.92R  
MARATHON CLEAR 79 76 90 S8 29.92S  
KEY WEST NAS CLOUDY 78 75 90 SW13 29.93S  
KEY WEST INTL MOCLDY 79 75 87 SW10 29.93S  
 
STATION/POSITION SKY/WX TEMP WIND PRES WAVE SWELL
 
AIR SEA DIR/SP/G HT/PER HT/PER  
(F) (DEG/KT/KT) (MB) (FT/S) (FT/S)  
VENICE 72 74 280/ 17/ 18 1012.3R  
NAPLES 75 77 240/ 12/ 15 1013.2R  
26.0N 85.6W 72 80 330/ 14/ 19 1014.6R 4/ 5 2/ 7  
DRY TORTUGAS NOT AVBL  
NW FL BAY 81 180/ 17/ 20 1013.1F  
SOMBRERO KEY 79 220/ 14/ 15 1014.0R  
LONG KEY 79 81 190/ 16/ 18 1013.9R  
MOLASSES REEF 79 80 170/ 17/ 19 1012.8F  
 

 
FLZ067-068-071>074-168-172>174-191000-  
SOUTHEAST FLORIDA  
 
CITY SKY/WX TMP DP RH WIND PRES REMARKS
 
W PALM BEACH CLOUDY 77 71 82 S7 29.90S  
FT LAUDER-EXEC CLOUDY 76 72 87 S8 29.91S  
FT LAUDERDALE CLOUDY 79 73 82 S7 29.91R  
POMPANO BEACH CLOUDY 79 72 79 S8 29.91S  
PEMBROKE PINES CLOUDY 79 73 82 S8 29.93R  
OPA LOCKA CLOUDY 78 72 81 S9 29.92R  
MIAMI LGT RAIN 78 73 84 S9 29.92S  
WEST KENDALL CLOUDY 77 73 87 SW5 29.91F  
HOMESTEAD CLOUDY 78 69 74 S7 29.91F  
 
STATION/POSITION SKY/WX TEMP WIND PRES WAVE SWELL
 
AIR SEA DIR/SP/G HT/PER HT/PER  
(F) (DEG/KT/KT) (MB) (FT/S) (FT/S)  
PORT EVERGLADES 78 190/ 6/ 12 1013.0  
VIRGINIA KEY 79 79 190/ 11/ 13 1013.1R  
LAKE WORTH 78 78 190/ 11/ 13 1012.4R  
FOWEY ROCKS 79 78 170/ 21/ 22 1013.0R  
SETTLEMENT POINT 78 170/ 16/ 18 1013.5F  
 

 
 
CLICK HERE TO GO TO PREVIOUS BULLETINS.

The Nexlab FL Page Main Text Page